Back to catalog

ASTROCAST-0403

AliveCommunicationsSSO
NORAD 55111·PAYLOAD·🇨🇭 Switzerland

Launched Jan 3, 2023 from Cape Canaveral Space Force Station

Loading…

Next Passes (next 24 hours)

TLE

FreshSource: Space-Track

Epoch: Sep 14, 2026, 05:23 UTC

1 55111U 23001DG  26257.22497482  .00020717  00000-0  61263-3 0  9997
2 55111  97.5610 353.3903 0004107  24.5076 335.6361 15.34942467158203

Track ASTROCAST-0403 in real time with AllMySat

Download on the App Store